Regional Weather Roundup
Issued by NWS

Home | Current Version | Previous Version | Text Only | Print | Product List | Glossary On
Versions: 1 2 3 4 5 6 7 8 9 10 11 12 13 14 15 16 17 18 19 20 21 22 23 24 25 26 27 28 29 30 31 32 33 34 35 36 37 38 39 40 41 42 43 44 45 46 47 48 49 50
000
ASUS45 KBOI 111510
RWRID
WEATHER ROUNDUP FOR IDAHO
NATIONAL WEATHER SERVICE BOISE ID
900 AM MDT FRI JUL 11 2014

NOTE: "FAIR" INDICATES FEW OR NO CLOUDS BELOW 12000 FEET
WITH NO SIGNIFICANT WEATHER AND/OR OBSTRUCTIONS TO VISIBILITY

IDZ012-014-111600-
SOUTHWEST IDAHO


CITY           SKY/WX    TMP DP  RH WIND       PRES   REMARKS
BOISE          SUNNY     75  47  36 SW7       29.95R
CALDWELL       SUNNY     75  43  31 W6        29.96R
MOUNTAIN HOME  SUNNY     76  44  31 N3        29.95R
$$

IDZ016-017-111600-
SOUTHCENTRAL IDAHO


CITY           SKY/WX    TMP DP  RH WIND       PRES   REMARKS
BURLEY         MOSUNNY   75  57  53 S10       30.01R
JEROME         MOSUNNY   74  52  46 S5        30.03R
TWIN FALLS     MOSUNNY   83  51  33 S12       30.02R
$$

IDZ019>023-111600-
SOUTHEAST IDAHO


CITY           SKY/WX    TMP DP  RH WIND       PRES   REMARKS
IDAHO FALLS    SUNNY     69  58  67 NW6       30.11R
POCATELLO      SUNNY     77  59  53 NW8       30.07R
REXBURG        SUNNY     64  53  67 NE5       30.12R
$$

IDZ006-010-011-018-031-032-111600-
CENTRAL IDAHO MOUNTAINS


CITY           SKY/WX    TMP DP  RH WIND       PRES   REMARKS
MCCALL         SUNNY     63  47  55 S3        30.09R
HAILEY         MOSUNNY   70  45  40 W6        30.12R
STANLEY          N/A     55  41  59 CALM      30.23S
SALMON         SUNNY     64  48  55 CALM      30.06S
CHALLIS        SUNNY     67  41  38 CALM      30.12R
$$

IDZ002-004-006-007-026-111600-
NORTHERN IDAHO


CITY           SKY/WX    TMP DP  RH WIND       PRES   REMARKS
LEWISTON       SUNNY     70  46  42 E5        29.96R
LOWELL           N/A     61  54  77 CALM      30.00F
COEUR D`ALENE  SUNNY     68  54  60 NE12      29.99R
MULLAN PASS    SUNNY     63  42  46 VRB3      30.19R
$$



USA.gov is the U.S. government's official web portal to all federal, state and local government web resources and services.